Overview Statistics Trail Chart Weather Telemetry Raw packets
 

This is the latest recevied weather packets stored in our database for station/object WA6ODQ-13. If no packets are shown the sender has not sent any weather packets the latest 10 day(s).

<< 64 65 66 67 68 69 70 >>
Time Temp. Humidity Pressure Rain* Wind** Luminosity Snow
1788221240 22.78° C 55% 1008.9 hPa 0 mm - 273 W/m² -
1788220935 23.33° C 54% 1008.9 hPa 0 mm - 286 W/m² -
1788220628 23.33° C 55% 1008.9 hPa 0 mm - 300 W/m² -
1788220324 22.78° C 55% 1009 hPa 0 mm - 313 W/m² -
1788220023 23.33° C 55% 1009 hPa 0 mm - 327 W/m² -
1788219718 23.33° C 55% 1008.7 hPa 0 mm - 341 W/m² -
1788219414 23.89° C 54% 1009.1 hPa 0 mm - 356 W/m² -
1788219109 23.33° C 54% 1008.7 hPa 0 mm - 369 W/m² -
1788218809 23.89° C 54% 1008.7 hPa 0 mm - 383 W/m² -
1788218505 24.44° C 54% 1008.9 hPa 0 mm - 395 W/m² -
1788218201 23.89° C 53% 1008.8 hPa 0 mm - 407 W/m² -
1788217897 23.89° C 54% 1008.9 hPa 0 mm - 421 W/m² -
1788217592 23.89° C 54% 1008.8 hPa 0 mm - 433 W/m² -
1788217288 23.89° C 55% 1008.9 hPa 0 mm - 446 W/m² -
1788216987 23.89° C 55% 1008.7 hPa 0 mm - 458 W/m² -
1788216682 24.44° C 55% 1009.1 hPa 0 mm - 470 W/m² -
1788216377 23.89° C 56% 1009.2 hPa 0 mm - 481 W/m² -
1788216073 23.89° C 55% 1009.1 hPa 0 mm - 493 W/m² -
1788215763 23.89° C 56% 1009.3 hPa 0 mm - 504 W/m² -
1788215459 23.89° C 56% 1009.4 hPa 0 mm - 515 W/m² -
1788215154 23.89° C 55% 1009.4 hPa 0 mm - 524 W/m² -
1788214855 23.89° C 55% 1009.5 hPa 0 mm - 535 W/m² -
1788214550 23.89° C 55% 1009.6 hPa 0 mm - 546 W/m² -
1788214245 23.89° C 55% 1009.6 hPa 0 mm - 556 W/m² -
1788213945 23.33° C 56% 1009.6 hPa 0 mm - 564 W/m² -

* Rain latest hour (hover to see other rain measurements)
** Current wind speed in m/s (hover to see current wind gust speed)